[[{"header":{"parameterUnit":"m.s-1","parameterCategory":1,"la1":30.2991,"la2":30.254,"lo1":-89.0895,"lo2":-89.0444,"dy":0.0017,"dx":0.0017,"nx":28,"ny":28,"refTime":"2024-04-17T09:00:00:Z","depth":0,"parameterNumber":2,"parameterNumberName":"U-component_of_WINDS"},"data":[0,0,0,0,0,0,0,0,0,0,0,0,0,0,0,0,0,0,0,0,0,0,0,0,0,0,0,0,0,0,0,0,0,0,0,0,0,0,0,0,0,0,0,0,0,0,0,0,0,0,0,0,0,0,0,0,0,0,-2.8349,-2.8349,0,-2.8341,-2.8341,-2.8341,-2.8291,-2.829,-2.8288,-2.8287,-2.8279,-2.828,-2.8281,0,0,0,0,0,0,0,0,0,0,0,0,0,-2.8322,-2.8323,-2.8349,-2.8349,-2.8349,-2.8341,-2.8341,-2.8341,-2.8291,-2.829,-2.8288,-2.8287,-2.8279,-2.828,-2.8281,0,0,0,0,0,0,0,0,0,0,0,0,0,-2.8326,-2.8323,-2.8349,-2.8323,-2.8321,-2.8341,-2.8341,-2.8341,-2.8291,-2.829,-2.8288,-2.8286,-2.8279,-2.828,-2.8281,-2.8327,0,0,-2.8286,-2.8286,0,0,0,0,0,0,0,0,-2.8326,-2.8327,-2.8327,-2.8325,-2.8322,-2.8315,-2.8329,-2.8336,-2.8292,-2.8303,-2.8287,-2.8285,-2.8293,-2.8293,-2.8295,-2.8326,-2.8326,-2.8286,-2.8287,-2.8287,-2.8288,0,0,0,0,0,0,0,-2.8326,-2.8327,-2.8346,-2.8327,-2.8324,-2.8312,-2.8311,-2.833,-2.8308,-2.8301,-2.8298,-2.8298,-2.8291,-2.8294,-2.8295,-2.8326,-2.8286,-2.8287,-2.8288,-2.8288,-2.8394,-2.8396,0,0,0,0,0,0,-2.8329,-2.8327,-2.8346,-2.8346,-2.832,-2.8314,-2.8312,-2.8319,-2.8308,-2.8304,-2.8299,-2.8295,-2.8293,-2.8293,-2.8294,-2.8346,-2.8287,-2.8289,-2.8289,-2.8392,-2.8394,-2.8396,0,0,0,0,0,0,-2.8328,-2.8331,-2.8347,-2.8336,-2.8337,-2.8317,-2.8325,-2.832,-2.8323,-2.8306,-2.8302,-2.8306,-2.8291,-2.8293,-2.8319,-2.8345,-2.8289,-2.8291,-2.839,-2.8393,-2.8395,-2.845,0,0,0,0,0,0,-2.8328,-2.8331,-2.8348,-2.8336,-2.8337,-2.8371,-2.8326,-2.8321,-2.8326,-2.832,-2.8311,-2.8308,-2.829,-2.8317,-2.8321,-2.8346,-2.8292,-2.8387,-2.8391,-2.8394,-2.8446,-2.8455,-2.8462,0,0,0,0,0,-2.8327,-2.8364,-2.8349,-2.8352,-2.8358,-2.8373,-2.8374,-2.8352,-2.8328,-2.8345,-2.8334,-2.8309,-2.8342,-2.832,-2.8324,-2.835,-2.8385,-2.839,-2.8394,-2.8442,-2.8453,-2.8462,0,0,0,0,0,0,-2.8378,-2.8362,-2.8345,-2.8379,-2.8378,-2.8364,-2.8384,-2.8364,-2.8369,-2.8364,-2.8337,-2.8336,-2.8366,-2.8361,-2.8337,-2.8393,-2.836,-2.8365,-2.8395,-2.8405,-2.8413,-2.8413,-2.8293,0,0,0,0,0,-2.8394,-2.8407,-2.8392,-2.8423,-2.8424,-2.8405,-2.841,-2.8394,-2.8391,-2.8391,-2.8382,-2.8381,-2.8391,-2.8398,-2.8407,-2.8446,-2.8443,-2.8466,-2.8474,-2.8481,-2.8485,-2.8505,-2.8515,-2.8411,-2.8411,-2.8411,0,0,-2.8425,-2.8418,-2.8428,-2.8434,-2.8431,-2.8445,-2.8404,-2.8422,-2.8432,-2.8393,-2.8417,-2.8411,-2.8408,-2.8441,-2.8456,-2.8438,-2.8513,-2.8486,-2.8492,-2.8492,-2.8511,-2.852,-2.8529,-2.8414,-2.8413,-2.8413,0,0,-2.849,-2.8486,-2.8511,-2.851,-2.8506,-2.8493,-2.85,-2.849,-2.8484,-2.8508,-2.8479,-2.8492,-2.8511,-2.851,-2.8512,-2.8578,-2.8555,-2.8582,-2.8623,-2.8643,-2.8651,-2.8658,-2.8681,-2.8689,-2.8586,-2.8587,-2.8587,0,-2.8529,-2.855,-2.8527,-2.8546,-2.855,-2.8516,-2.8542,-2.8541,-2.8541,-2.8544,-2.8525,-2.8548,-2.8543,-2.8575,-2.8592,-2.8595,-2.8601,-2.8581,-2.8652,-2.8659,-2.8665,-2.8686,-2.8695,-2.859,-2.8589,-2.8589,-2.8589,0,-2.8598,-2.8613,-2.8634,-2.8635,-2.8641,-2.8663,-2.8644,-2.8653,-2.8637,-2.8627,-2.8652,-2.8646,-2.8653,-2.866,-2.8644,-2.869,-2.8679,-2.8657,-2.8622,-2.8678,-2.8698,-2.8706,-2.8594,-2.8593,-2.8592,-2.8591,0,0,-2.8692,-2.8681,-2.8689,-2.8689,-2.8683,-2.8694,-2.8716,-2.8723,-2.8731,-2.8732,-2.8749,-2.8767,-2.8746,-2.8748,-2.8732,-2.875,-2.8802,-2.8725,-2.8725,-2.8739,-2.8852,-2.8867,-2.8877,-2.8788,-2.8789,-2.8791,-2.8851,0,-2.8753,-2.8788,-2.8769,-2.8807,-2.882,-2.879,-2.8809,-2.8807,-2.8799,-2.8809,-2.88,-2.8812,-2.8784,-2.8786,-2.8802,-2.8792,-2.8824,-2.8788,-2.8802,-2.8803,-2.8802,-2.8887,-2.8904,-2.8961,-2.8859,-2.886,-2.8861,0,-2.8828,-2.8832,-2.8872,-2.8864,-2.8869,-2.8886,-2.8891,-2.8902,-2.89,-2.8893,-2.8896,-2.8877,-2.8897,-2.8865,-2.8893,-2.8869,-2.8874,-2.8871,-2.8872,-2.8871,-2.8834,-2.8887,-2.8979,-2.8987,-2.8873,-2.8872,-2.8871,0,-2.8891,-2.8907,-2.8933,-2.8934,-2.8926,-2.8939,-2.8936,-2.8933,-2.8938,-2.8943,-2.8946,-2.8954,-2.8958,-2.8964,-2.8947,-2.8925,-2.8977,-2.8943,-2.8971,-2.8971,-2.8981,-2.8981,-2.9074,-2.8988,-2.8988,-2.8988,-2.8988,0,-2.8959,-2.8984,-2.8961,-2.8976,-2.9004,-2.8983,-2.901,-2.9004,-2.9002,-2.9016,-2.8991,-2.9005,-2.8982,-2.8994,-2.8981,-2.9006,-2.9008,-2.9003,-2.8998,-2.9004,-2.9004,-2.9005,-2.9,-2.899,-2.899,-2.8989,-2.8989,0,-2.9033,-2.9019,-2.9044,-2.9035,-2.9034,-2.9054,-2.9046,-2.906,-2.9051,-2.9069,-2.9072,-2.9057,-2.907,-2.9054,-2.9066,-2.9057,-2.909,-2.9081,-2.9091,-2.9087,-2.9115,-2.9112,-2.9211,-2.9223,-2.9131,-2.9132,-2.9133,0,-2.9076,-2.9095,-2.9088,-2.9096,-2.9095,-2.9108,-2.9113,-2.9094,-2.9101,-2.9101,-2.9116,-2.9126,-2.9133,-2.9155,-2.9145,-2.9154,-2.9143,-2.9178,-2.9144,-2.9149,-2.9142,-2.9141,-2.9142,-2.9184,-2.9185,-2.9186,-2.9186,0,-2.9155,-2.9147,-2.9156,-2.9164,-2.9171,-2.9176,-2.9179,-2.9186,-2.9166,-2.9176,-2.9188,-2.9194,-2.9206,-2.9216,-2.9222,-2.922,-2.92,-2.9198,-2.9204,-2.9208,-2.9212,-2.9209,-2.9107,-2.9195,-2.9194,-2.9193,-2.9193,-2.9192,-2.9214,-2.9229,-2.9227,-2.9238,-2.9238,-2.9242,-2.9254,-2.9247,-2.9257,-2.9265,-2.9254,-2.9269,-2.9268,-2.9274,-2.9275,-2.9287,-2.9272,-2.9282,-2.9284,-2.9286,-2.929,-2.9213,-2.9288,-2.9288,-2.9287,-2.9287,-2.9287,0,-2.929,-2.9288,-2.9298,-2.9303,-2.9312,-2.9294,-2.9296,-2.9305,-2.9319,-2.932,-2.9328,-2.9342,-2.9353,-2.9345,-2.9354,-2.9365,-2.9356,-2.9368,-2.9366,-2.9365,-2.9303,-2.9296,-2.9375,-2.9375,-2.9375,-2.9375,-2.9375,-2.9375,-2.933,-2.9355,-2.9347,-2.9371,-2.9369,-2.9384,-2.9387,-2.939,-2.9391,-2.9408,-2.9417,-2.9412,-2.9409,-2.9418,-2.9427,-2.9424,-2.9428,-2.9443,-2.9437,-2.9378,-2.937,-2.9361,-2.9354,-2.9444,-2.9444,-2.9497,-2.9498,-2.9498]},{"header":{"parameterUnit":"m.s-1","parameterCategory":1,"la1":30.2991,"la2":30.254,"lo1":-89.0895,"lo2":-89.0444,"dy":0.0017,"dx":0.0017,"nx":28,"ny":28,"refTime":"2024-04-17T09:00:00:Z","depth":0,"parameterNumber":3,"parameterNumberName":"V-component_of_WINDS"},"data":[0,0,0,0,0,0,0,0,0,0,0,0,0,0,0,0,0,0,0,0,0,0,0,0,0,0,0,0,0,0,0,0,0,0,0,0,0,0,0,0,0,0,0,0,0,0,0,0,0,0,0,0,0,0,0,0,0,0,2.5246,2.5247,0,2.5334,2.5335,2.5336,2.5326,2.5325,2.5323,2.5322,2.5411,2.5414,2.5418,0,0,0,0,0,0,0,0,0,0,0,0,0,2.507,2.5074,2.5246,2.5247,2.5248,2.5333,2.5335,2.5336,2.5326,2.5325,2.5323,2.5321,2.541,2.5414,2.5418,0,0,0,0,0,0,0,0,0,0,0,0,0,2.5151,2.5075,2.5246,2.5254,2.5255,2.5333,2.5335,2.5336,2.5327,2.5325,2.5323,2.5321,2.5408,2.5414,2.5419,2.5494,0,0,2.5436,2.5438,0,0,0,0,0,0,0,0,2.5147,2.5158,2.5251,2.5253,2.5255,2.5317,2.5305,2.5389,2.5327,2.53,2.5322,2.532,2.5381,2.5389,2.541,2.5498,2.5502,2.5436,2.5439,2.5442,2.5443,0,0,0,0,0,0,0,2.5141,2.5154,2.528,2.5253,2.5255,2.5253,2.5262,2.5321,2.5351,2.5302,2.5301,2.5312,2.5382,2.5404,2.5412,2.5504,2.5436,2.5441,2.5444,2.5446,2.566,2.5663,0,0,0,0,0,0,2.5133,2.5149,2.5278,2.5283,2.5195,2.5258,2.5268,2.5299,2.535,2.5356,2.5314,2.5311,2.5396,2.5405,2.5415,2.5508,2.5442,2.5447,2.545,2.5658,2.5661,2.5663,0,0,0,0,0,0,2.513,2.5145,2.5274,2.5216,2.5232,2.5263,2.5298,2.5302,2.5325,2.5359,2.5364,2.5331,2.5395,2.5407,2.5475,2.5511,2.5449,2.5454,2.5655,2.5659,2.5662,2.5693,0,0,0,0,0,0,2.5125,2.5144,2.5173,2.5217,2.5236,2.5333,2.53,2.5305,2.5334,2.5332,2.5377,2.5383,2.5394,2.5467,2.5481,2.5517,2.5459,2.5652,2.5657,2.5661,2.5689,2.5698,2.5705,0,0,0,0,0,2.5119,2.5177,2.5174,2.519,2.5272,2.5335,2.5346,2.5358,2.5337,2.5367,2.5389,2.5381,2.5504,2.5474,2.5489,2.5528,2.565,2.5655,2.5661,2.5686,2.5696,2.5704,0,0,0,0,0,0,2.5135,2.5183,2.518,2.5255,2.5291,2.5333,2.5371,2.5368,2.5411,2.5407,2.542,2.543,2.5499,2.552,2.5485,2.5604,2.5574,2.5583,2.5588,2.5598,2.5606,2.5599,2.5463,0,0,0,0,0,2.5148,2.5195,2.5234,2.5296,2.5315,2.534,2.5368,2.5374,2.5412,2.5427,2.5455,2.5491,2.5539,2.5569,2.5615,2.5692,2.5703,2.5726,2.5734,2.574,2.5748,2.5792,2.5803,2.5681,2.5681,2.5681,0,0,2.5174,2.5206,2.5235,2.5301,2.533,2.5379,2.5353,2.5405,2.5442,2.5435,2.5501,2.5523,2.5565,2.5639,2.5672,2.5658,2.5784,2.5747,2.5752,2.5756,2.5799,2.581,2.582,2.5685,2.5684,2.5684,0,0,2.5247,2.5276,2.5331,2.5361,2.5406,2.5422,2.5436,2.5479,2.5493,2.556,2.5557,2.56,2.5681,2.5712,2.5738,2.5824,2.5819,2.5839,2.5879,2.5922,2.5931,2.594,2.5972,2.5983,2.5846,2.5846,2.5846,0,2.5274,2.5348,2.536,2.5414,2.5444,2.5441,2.5498,2.5526,2.5583,2.5603,2.5587,2.5689,2.5717,2.5799,2.582,2.5841,2.5857,2.5834,2.5929,2.5938,2.5946,2.5977,2.5989,2.5848,2.5848,2.5848,2.5847,0,2.538,2.5431,2.5471,2.5527,2.5561,2.5615,2.5637,2.567,2.5673,2.5692,2.5761,2.5794,2.5847,2.5867,2.5871,2.595,2.594,2.5926,2.5896,2.596,2.5989,2.6001,2.5851,2.585,2.585,2.5849,0,0,2.5465,2.5529,2.5543,2.5569,2.5619,2.5659,2.5714,2.5766,2.5795,2.5834,2.5881,2.5951,2.5939,2.5968,2.5976,2.6013,2.6082,2.5995,2.5996,2.6011,2.6172,2.6183,2.6196,2.6078,2.6081,2.6082,2.6169,0,2.5544,2.5643,2.5656,2.5743,2.5792,2.579,2.5838,2.5874,2.5893,2.5937,2.5957,2.6007,2.5987,2.6005,2.6042,2.6065,2.6114,2.6059,2.6123,2.6125,2.6113,2.6211,2.6223,2.6303,2.618,2.6182,2.6184,0,2.5649,2.5693,2.5785,2.583,2.585,2.5894,2.5944,2.5985,2.6026,2.6037,2.6071,2.6075,2.6132,2.61,2.618,2.6143,2.6169,2.6185,2.6188,2.6195,2.6159,2.6222,2.6328,2.6341,2.6201,2.62,2.6199,0,2.5704,2.5786,2.5852,2.5874,2.5927,2.5958,2.5982,2.602,2.6052,2.6095,2.6116,2.6165,2.6192,2.623,2.6247,2.6222,2.6327,2.6295,2.6338,2.6338,2.6361,2.636,2.6474,2.6377,2.6377,2.6376,2.6376,0,2.5791,2.5848,2.5878,2.5919,2.5983,2.5998,2.6061,2.6083,2.6118,2.6163,2.6165,2.6207,2.6226,2.6272,2.6285,2.635,2.6362,2.6373,2.6376,2.6374,2.6373,2.6392,2.6388,2.638,2.6379,2.6378,2.6378,0,2.5864,2.5886,2.5958,2.6003,2.6016,2.6061,2.6099,2.6139,2.6158,2.6216,2.623,2.626,2.6314,2.6334,2.6399,2.6408,2.6484,2.6482,2.6471,2.6472,2.6514,2.6511,2.6646,2.6665,2.6554,2.6555,2.6556,0,2.5919,2.5963,2.6013,2.6043,2.6068,2.6118,2.615,2.6167,2.62,2.6251,2.6285,2.6339,2.6383,2.647,2.6497,2.6547,2.6547,2.6591,2.6555,2.6552,2.655,2.6547,2.6552,2.6598,2.6599,2.66,2.6601,0,2.6014,2.6023,2.6069,2.6121,2.6159,2.62,2.6239,2.6265,2.6287,2.6325,2.6381,2.6415,2.6483,2.6537,2.6589,2.6613,2.6612,2.6612,2.6625,2.6624,2.6616,2.6622,2.6491,2.6609,2.6609,2.6608,2.6608,2.6607,2.608,2.612,2.6162,2.6214,2.6246,2.6283,2.6323,2.6348,2.6395,2.6452,2.6458,2.6519,2.656,2.663,2.6656,2.6704,2.6692,2.671,2.6715,2.672,2.6723,2.6608,2.6713,2.6713,2.6713,2.6712,2.6712,0,2.6177,2.6204,2.6252,2.6308,2.6349,2.6344,2.6388,2.6423,2.6477,2.6515,2.6559,2.6624,2.6676,2.6708,2.6761,2.6793,2.6794,2.6807,2.6805,2.6811,2.673,2.6714,2.6806,2.6806,2.6806,2.6806,2.6805,2.6805,2.6232,2.6299,2.6314,2.6397,2.6424,2.6483,2.6509,2.6544,2.6575,2.6648,2.6692,2.6712,2.6749,2.6804,2.6853,2.6861,2.6881,2.6895,2.6902,2.6826,2.6817,2.6807,2.6793,2.6899,2.6899,2.6979,2.698,2.6981]}]]